Temp
-3 -3 -3 -3 -3 -3 -3 -2 -2 -2 -2 -2 -2 -2 -2 -2 -2 -3 -3 -2 -4 -4 -5 -6 -6 -6 -7 -7 -5 -5 -6 -6 -7 -8 -8 -7 -7 -6 -5 -4 -4 -5 -6 -6 -6
-3 -3 -3 -3 -3 -3 -3 -3 -3 -2 -2 -2 -2 -2 -2 -2 -2 -3 -2 -3 -4 -4 -4 -5 -6 -7 -7 -5 -5 -5 -6 -6 -6 -6 -7 -7 -6 -5 -5 -4 -5 -4 -5 -5 -6
-3 -3 -3 -3 -3 -3 -3 -3 -3 -3 -2 -2 -2 -2 -2 -2 -2 -2 -2 -3 -3 -4 -4 -5 -5 -6 -7 -5 -6 -6 -5 -7 -7 -7 -7 -7 -6 -6 -7 -5 -5 -6 -5 -5 -4
-3 -3 -3 -3 -3 -3 -3 -3 -3 -3 -3 -2 -2 -2 -2 -2 -2 -2 -2 -2 -3 -3 -3 -4 -5 -5 -6 -6 -5 -6 -7 -6 -6 -6 -7 -8 -7 -6 -6 -5 -5 -5 -5 -5 -5
-3 -3 -3 -3 -3 -3 -3 -3 -3 -3 -3 -3 -3 -2 -2 -2 -1 -2 -2 -3 -3 -3 -4 -4 -5 -5 -6 -6 -6 -6 -8 -7 -8 -8 -8 -8 -7 -7 -6 -6 -6 -6 -5 -5 -5
-3 -3 -3 -3 -3 -3 -3 -3 -3 -3 -3 -3 -3 -3 -2 -2 -2 -2 -2 -2 -3 -3 -3 -4 -4 -5 -6 -7 -5 -7 -8 -8 -8 -8 -8 -8 -8 -6 -6 -6 -6 -5 -6 -6 -5
-4 -3 -3 -3 -3 -3 -3 -3 -3 -3 -3 -3 -2 -3 -3 -3 -2 -2 -2 -2 -3 -2 -3 -3 -5 -5 -5 -6 -6 -7 -9 -8 -8 -8 -8 -8 -6 -6 -6 -6 -6 -6 -6 -6 -6
-4 -4 -3 -3 -3 -3 -3 -3 -3 -2 -3 -3 -3 -3 -3 -3 -3 -3 -2 -2 -3 -3 -3 -3 -4 -5 -5 -5 -5 -5 -7 -8 -8 -7 -8 -8 -7 -7 -7 -6 -5 -6 -6 -6 -6
-3 -3 -3 -3 -3 -3 -3 -3 -2 -2 -2 -2 -2 -3 -3 -3 -3 -3 -2 -2 -2 -3 -3 -3 -3 -4 -5 -5 -5 -4 -5 -6 -8 -8 -7 -8 -6 -5 -6 -5 -5 -5 -5 -5 -5
-3 -3 -2 -2 -3 -3 -2 -2 -2 -2 -2 -2 -2 -2 -3 -3 -3 -3 -3 -2 -3 -3 -3 -3 -3 -3 -3 -4 -4 -4 -4 -5 -7 -7 -7 -7 -7 -6 -6 -5 -5 -5 -5 -5 -5
-4 -4 -3 -3 -3 -3 -2 -2 -2 -1 -2 -1 -1 -2 -2 -3 -3 -3 -3 -3 -3 -3 -3 -3 -3 -2 -3 -3 -4 -5 -5 -6 -7 -8 -7 -7 -6 -6 -6 -5 -5 -5 -5 -5 -4
-3 -3 -3 -3 -3 -3 -3 -2 -2 -2 -1 -2 -2 -2 -1 -2 -2 -3 -3 -3 -3 -3 -3 -2 -2 -3 -4 -4 -5 -5 -5 -5 -8 -7 -7 -6 -7 -6 -5 -5 -5 -4 -5 -5 -4
-3 -3 -3 -4 -3 -3 -3 -3 -3 -2 -1 -2 -3 -2 -3 -1 -2 -2 -2 -3 -3 -3 -3 -3 -3 -4 -4 -4 -4 -5 -5 -5 -8 -7 -7 -7 -7 -6 -6 -6 -5 -4 -5 -5 -5
-4 -4 -4 -4 -4 -3 -2 -3 -3 -2 -2 -1 -2 -2 -2 -2 -1 -3 -3 -3 -3 -3 -3 -3 -3 -3 -4 -4 -4 -4 -5 -5 -7 -7 -7 -7 -6 -7 -7 -5 -5 -5 -5 -5 -5
-4 -4 -4 -4 -4 -4 -3 -4 -3 -3 -2 -2 -2 -2 -3 -2 -3 -3 -3 -2 -3 -3 -3 -3 -3 -3 -2 -3 -4 -3 -6 -6 -6 -7 -8 -7 -6 -6 -6 -6 -5 -6 -6 -5 -5
-4 -4 -4 -4 -5 -4 -4 -4 -4 -3 -2 -3 -2 -2 -2 -3 -3 -3 -3 -3 -3 -3 -3 -3 -3 -3 -3 -3 -4 -4 -5 -6 -6 -7 -8 -7 -7 -6 -7 -5 -6 -6 -5 -5 -5
-4 -4 -4 -5 -4 -4 -4 -4 -4 -3 -3 -3 -4 -3 -2 -2 -3 -3 -3 -3 -3 -3 -2 -3 -3 -3 -3 -3 -4 -5 -5 -6 -6 -6 -5 -7 -7 -4 -6 -7 -6 -5 -6 -5 -5
-4 -5 -5 -5 -5 -4 -4 -4 -4 -3 -3 -6 -6 -4 -3 -3 -3 -4 -4 -2 -3 -3 -3 -3 -3 -3 -3 -3 -3 -4 -5 -4 -5 -5 -5 -6 -7 -3 -5 -6 -6 -6 -5 -4 -6
-4 -4 -4 -4 -5 -5 -5 -4 -3 -4 -5 -4 -5 -4 -4 -4 -4 -4 -4 -3 -4 -4 -4 -4 -3 -4 -3 -4 -4 -4 -4 -5 -6 -6 -6 -5 -5 -5 -5 -6 -6 -6 -6 -6 -7
-3 -3 -5 -4 -4 -4 -4 -3 -4 -5 -4 -5 -5 -6 -5 -5 -6 -6 -5 -4 -3 -4 -5 -4 -4 -5 -4 -4 -4 -5 -5 -6 -6 -5 -5 -5 -5 -5 -5 -5 -5 -6 -5 -6 -6
-4 -3 -8 -7 -6 -5 -4 -4 -4 -5 -6 -6 -7 -6 -6 -6 -6 -5 -3 -5 -6 -5 -6 -6 -5 -5 -5 -5 -5 -4 -4 -6 -7 -7 -6 -5 -4 -5 -6 -6 -5 -5 -5 -6 -5
-4 -4 -9 -10 -9 -7 -6 -8 -8 -7 -8 -8 -7 -7 -7 -8 -7 -6 -4 -4 -9 -8 -7 -6 -7 -6 -4 -5 -6 -5 -4 -6 -5 -6 -7 -7 -4 -5 -6 -6 -5 -6 -6 -6 -5
-7 -7 -13 -14 -10 -12 -12 -12 -11 -11 -10 -9 -9 -10 -10 -9 -9 -8 -6 -6 -9 -9 -9 -9 -7 -7 -6 -6 -5 -5 -6 -5 -6 -6 -5 -7 -3 -5 -5 -6 -5 -7 -7 -6 -7
-13 -13 -18 -19 -18 -19 -19 -15 -15 -14 -12 -12 -9 -10 -10 -11 -10 -9 -8 -8 -10 -9 -9 -10 -9 -7 -5 -5 -6 -6 -7 -7 -6 -6 -4 -4 -5 -5 -5 -6 -7 -7 -7 -7 -7
-23 -21 -23 -23 -23 -22 -22 -22 -20 -17 -16 -16 -12 -12 -13 -11 -11 -10 -10 -8 -8 -9 -9 -9 -10 -8 -6 -7 -7 -6 -8 -8 -6 -4 -5 -5 -6 -5 -5 -6 -6 -7 -7 -7 -8
-26 -25 -25 -24 -24 -24 -23 -23 -22 -21 -19 -19 -18 -18 -16 -14 -13 -12 -10 -9 -9 -9 -9 -9 -10 -10 -10 -8 -8 -8 -8 -8 -8 -7 -6 -6 -5 -7 -6 -6 -7 -7 -6 -8 -8
-26 -26 -25 -25 -24 -24 -23 -23 -23 -23 -22 -21 -21 -20 -19 -17 -15 -12 -12 -10 -9 -9 -10 -10 -10 -10 -10 -10 -10 -9 -7 -8 -8 -8 -8 -6 -5 -7 -7 -7 -8 -8 -8 -8 -8
Height
5892 5891 5890 5888 5887 5886 5885 5884 5883 5882 5881 5880 5880 5881 5882 5883 5884 5884 5884 5885 5886 5888 5890 5891 5892 5893 5896 5895 5895 5896 5902 5897 5893 5897 5902 5900 5901 5898 5896 5898 5899 5902 5906 5903 5905
5892 5890 5888 5886 5885 5884 5884 5883 5882 5881 5880 5879 5878 5878 5879 5880 5882 5883 5884 5883 5885 5887 5889 5890 5891 5891 5894 5895 5896 5895 5899 5897 5899 5900 5902 5902 5901 5902 5898 5898 5898 5899 5900 5903 5904
5890 5889 5887 5885 5883 5882 5881 5881 5881 5880 5879 5877 5876 5876 5876 5878 5880 5881 5882 5882 5883 5884 5887 5888 5888 5889 5891 5894 5897 5898 5898 5902 5903 5903 5903 5902 5901 5902 5900 5897 5901 5902 5900 5902 5904
5888 5887 5886 5884 5882 5881 5880 5879 5878 5877 5877 5876 5875 5874 5873 5874 5877 5877 5879 5880 5881 5882 5884 5887 5888 5889 5891 5890 5894 5899 5899 5902 5905 5903 5903 5902 5900 5900 5899 5900 5900 5900 5900 5899 5903
5886 5885 5884 5882 5881 5879 5878 5877 5876 5874 5874 5873 5873 5872 5872 5872 5872 5871 5875 5877 5879 5880 5882 5884 5887 5889 5891 5891 5891 5897 5901 5902 5902 5903 5903 5905 5902 5900 5897 5900 5903 5900 5900 5900 5899
5883 5882 5881 5880 5879 5878 5876 5875 5874 5872 5871 5871 5870 5870 5870 5870 5871 5868 5871 5873 5875 5877 5879 5881 5886 5888 5890 5891 5891 5894 5899 5902 5904 5903 5909 5907 5903 5901 5901 5900 5903 5900 5899 5900 5901
5879 5878 5877 5876 5875 5875 5874 5872 5871 5871 5869 5868 5868 5868 5868 5868 5868 5868 5867 5870 5872 5874 5876 5879 5882 5881 5886 5889 5890 5891 5895 5899 5908 5910 5909 5905 5900 5898 5898 5900 5902 5901 5901 5900 5901
5874 5873 5873 5872 5871 5871 5870 5869 5868 5867 5867 5866 5866 5867 5864 5865 5866 5865 5866 5866 5868 5870 5872 5874 5877 5880 5882 5887 5887 5887 5891 5895 5902 5909 5909 5903 5903 5901 5899 5901 5902 5901 5900 5900 5902
5868 5868 5868 5867 5866 5866 5866 5865 5864 5863 5863 5862 5864 5864 5862 5863 5863 5863 5863 5863 5863 5865 5867 5869 5872 5876 5880 5883 5885 5886 5889 5893 5899 5904 5905 5904 5902 5902 5902 5901 5904 5903 5900 5901 5903
5863 5863 5863 5863 5862 5861 5861 5860 5860 5860 5859 5858 5860 5861 5862 5860 5860 5859 5859 5859 5860 5861 5862 5864 5867 5870 5873 5876 5881 5888 5891 5891 5894 5901 5900 5901 5905 5901 5900 5899 5902 5904 5901 5901 5902
5858 5857 5857 5856 5856 5856 5855 5855 5856 5856 5855 5854 5855 5856 5856 5856 5856 5856 5857 5857 5857 5858 5859 5861 5861 5866 5871 5875 5882 5886 5888 5889 5895 5900 5898 5898 5900 5900 5901 5899 5901 5903 5901 5902 5903
5851 5850 5849 5848 5849 5848 5847 5847 5847 5847 5850 5848 5848 5851 5849 5850 5853 5852 5852 5854 5854 5855 5855 5856 5857 5864 5867 5869 5874 5880 5884 5886 5890 5894 5894 5897 5897 5902 5899 5902 5902 5901 5900 5902 5904
5841 5842 5842 5839 5840 5840 5838 5840 5839 5838 5839 5846 5841 5842 5844 5844 5847 5848 5847 5848 5850 5852 5852 5853 5857 5857 5860 5863 5867 5873 5879 5883 5885 5887 5889 5889 5891 5891 5897 5898 5899 5898 5898 5901 5905
5830 5829 5830 5831 5829 5830 5829 5833 5829 5830 5826 5839 5835 5836 5837 5837 5840 5841 5842 5843 5843 5848 5847 5848 5850 5850 5852 5857 5863 5867 5876 5882 5881 5882 5881 5883 5885 5888 5892 5891 5892 5894 5896 5900 5903
5818 5817 5817 5818 5818 5816 5818 5822 5822 5822 5813 5825 5825 5829 5829 5832 5832 5834 5834 5835 5840 5841 5840 5847 5845 5846 5847 5850 5856 5867 5872 5877 5879 5879 5875 5880 5879 5880 5887 5886 5889 5892 5895 5898 5901
5804 5803 5804 5802 5805 5803 5804 5807 5809 5811 5802 5811 5812 5818 5822 5823 5824 5824 5825 5827 5832 5832 5832 5840 5839 5840 5844 5846 5849 5861 5863 5869 5872 5873 5869 5874 5876 5882 5881 5882 5884 5892 5893 5896 5898
5787 5787 5786 5789 5786 5790 5790 5791 5794 5793 5796 5801 5801 5803 5807 5812 5815 5813 5816 5816 5821 5824 5827 5835 5834 5835 5836 5839 5842 5849 5854 5857 5860 5859 5858 5869 5869 5875 5881 5883 5885 5890 5890 5895 5895
5769 5768 5769 5767 5769 5769 5773 5774 5775 5780 5785 5788 5785 5787 5790 5795 5800 5805 5803 5806 5810 5813 5818 5821 5824 5831 5834 5831 5836 5838 5843 5845 5845 5851 5857 5863 5857 5866 5879 5880 5884 5883 5885 5885 5888
5749 5747 5747 5746 5746 5746 5750 5752 5758 5765 5765 5763 5769 5770 5776 5778 5783 5788 5792 5795 5802 5804 5807 5813 5816 5825 5824 5828 5829 5832 5830 5845 5845 5850 5852 5855 5859 5866 5870 5874 5876 5876 5874 5879 5882
5723 5722 5720 5718 5718 5721 5724 5733 5736 5737 5741 5743 5746 5754 5759 5761 5759 5769 5778 5786 5787 5793 5798 5803 5806 5813 5818 5820 5821 5821 5831 5833 5832 5835 5837 5846 5852 5857 5865 5867 5870 5874 5878 5879 5879
5690 5691 5689 5683 5685 5689 5698 5704 5707 5712 5713 5715 5720 5730 5736 5743 5742 5747 5757 5770 5777 5779 5787 5793 5794 5802 5805 5805 5812 5816 5816 5820 5827 5829 5829 5836 5838 5853 5860 5864 5866 5868 5871 5872 5872
5650 5653 5650 5647 5653 5656 5663 5670 5675 5682 5685 5691 5695 5702 5710 5718 5723 5727 5739 5746 5764 5771 5770 5777 5784 5785 5789 5796 5801 5807 5810 5815 5813 5820 5824 5829 5829 5849 5856 5858 5859 5860 5865 5866 5863
5611 5615 5615 5610 5617 5623 5631 5639 5643 5651 5654 5658 5661 5668 5681 5695 5700 5710 5715 5730 5738 5740 5758 5766 5763 5771 5778 5782 5784 5789 5799 5804 5810 5816 5813 5818 5819 5841 5847 5848 5849 5851 5855 5857 5859
5574 5580 5584 5580 5586 5589 5591 5598 5603 5611 5616 5619 5630 5639 5650 5663 5675 5689 5698 5713 5718 5728 5734 5750 5748 5747 5756 5769 5778 5780 5787 5794 5799 5799 5805 5803 5816 5827 5840 5842 5841 5843 5848 5849 5848
5549 5555 5556 5567 5568 5571 5575 5576 5585 5591 5592 5595 5604 5609 5619 5628 5641 5658 5672 5686 5698 5707 5713 5719 5722 5732 5742 5756 5767 5772 5778 5782 5785 5792 5794 5804 5809 5817 5829 5834 5836 5838 5840 5843 5846
5541 5541 5545 5552 5556 5559 5564 5569 5571 5571 5571 5581 5581 5592 5596 5605 5617 5635 5648 5668 5678 5689 5697 5703 5709 5721 5727 5738 5749 5758 5766 5771 5776 5783 5786 5793 5796 5808 5819 5824 5829 5830 5833 5836 5840
5538 5537 5537 5542 5544 5549 5553 5553 5555 5547 5563 5566 5565 5570 5581 5585 5590 5611 5628 5649 5664 5675 5683 5690 5698 5709 5713 5725 5735 5744 5745 5759 5769 5773 5777 5779 5790 5799 5804 5814 5819 5823 5825 5826 5831
Wind_Speed
8 8 9 10 10 9 7 7 6 7 8 8 13 15 13 10 6 3 8 9 13 16 19 18 14 14 18 15 11 8 3 13 20 17 10 21 21 19 19 11 7 2 8 7 2
9 10 11 11 11 10 9 9 9 8 7 8 8 10 16 14 8 7 2 4 10 14 21 20 18 16 14 17 12 12 21 16 12 3 8 10 18 14 15 12 10 9 7 7 5
10 12 12 13 12 11 10 10 10 9 8 8 8 8 9 15 12 11 7 8 11 14 18 22 21 20 17 17 13 17 13 9 7 4 12 16 21 13 12 16 7 5 6 5 4
11 11 13 14 14 13 12 12 12 11 9 8 8 8 7 7 15 15 12 10 11 14 14 15 21 21 21 17 15 7 7 11 6 10 17 16 22 15 14 12 11 8 7 6 2
13 15 15 14 13 13 13 13 12 12 12 9 7 8 7 5 6 17 15 13 13 11 17 19 20 22 21 19 11 7 7 11 11 11 11 20 21 17 21 16 9 8 8 6 4
14 13 13 14 14 13 14 14 13 11 10 9 7 6 6 7 4 11 17 16 16 13 17 20 16 22 26 23 16 9 5 14 5 6 15 18 22 20 19 17 10 9 7 9 7
14 12 10 10 12 14 14 15 15 13 12 10 8 7 6 6 5 8 9 19 18 17 15 20 24 31 26 25 22 21 20 10 8 7 16 20 20 12 25 16 9 8 8 9 9
17 15 13 13 12 13 13 15 15 15 14 13 12 10 13 9 6 6 8 10 22 21 20 20 27 29 30 24 25 25 26 22 14 18 18 21 14 19 25 15 11 6 7 4 10
17 17 16 15 17 16 16 16 16 16 16 17 13 12 15 11 9 6 8 9 16 25 25 23 23 28 29 28 27 27 22 20 17 18 15 16 17 15 23 20 15 7 4 4 7
20 21 21 19 19 20 20 19 18 17 16 18 15 16 14 13 11 10 8 9 11 21 29 28 24 26 26 30 25 22 19 18 11 15 16 21 18 14 19 28 19 10 3 5 7
21 23 24 24 24 24 27 26 23 23 20 20 15 15 18 15 16 15 12 11 11 14 22 30 31 23 20 20 20 23 24 17 10 20 24 22 16 15 11 14 10 9 4 5 6
27 25 27 30 27 28 29 29 28 27 22 25 25 14 20 19 16 18 18 13 13 12 17 22 24 24 23 23 24 27 24 19 17 27 24 20 19 18 16 18 17 9 6 6 7
34 33 29 32 32 32 33 31 31 31 29 18 29 28 24 23 17 19 20 19 16 15 16 15 12 26 28 29 26 27 25 22 25 31 24 27 19 14 17 16 19 9 5 7 10
42 41 37 36 39 36 36 33 38 37 41 28 33 31 27 28 22 22 21 23 22 17 19 18 19 25 30 32 29 27 24 23 30 21 29 22 20 24 21 14 12 12 6 7 9
44 45 45 45 44 44 43 39 40 40 48 37 36 30 28 29 24 26 27 26 23 22 27 12 21 21 24 29 33 18 31 30 33 26 33 24 35 33 26 29 20 18 18 9 9
47 48 48 47 44 48 48 45 44 45 51 42 41 36 31 30 28 30 30 32 27 31 32 22 22 23 20 26 33 25 31 38 37 31 35 29 32 25 35 25 26 21 27 21 12
53 54 54 51 54 52 52 53 52 53 51 48 46 46 44 41 36 35 36 37 35 32 33 25 29 25 26 27 29 35 36 41 45 46 46 35 36 25 23 22 26 26 24 23 16
59 59 57 59 58 59 58 57 59 56 53 48 45 51 49 47 45 41 42 40 39 39 33 33 34 28 24 27 29 31 42 45 52 52 45 40 45 30 17 17 23 27 27 24 24
63 65 65 67 65 62 62 63 62 57 56 58 56 58 54 52 51 47 48 44 39 37 41 36 36 29 32 27 32 32 38 37 45 45 50 46 42 26 22 26 25 30 35 27 41
73 71 66 69 68 70 71 70 67 63 61 62 62 58 60 59 52 47 45 44 45 42 39 39 40 34 33 33 35 37 32 33 45 49 53 44 46 31 22 28 32 36 36 31 26
79 77 64 67 71 72 70 69 66 64 64 68 69 67 65 65 66 60 56 46 43 44 41 41 43 40 40 44 40 38 40 43 37 46 49 47 50 33 33 28 28 34 27 32 30
89 86 69 67 70 73 71 66 65 65 65 70 73 74 74 73 72 72 67 61 33 37 42 42 42 48 48 45 40 41 41 42 47 44 50 52 46 34 30 23 28 26 29 31 32
90 86 63 65 71 63 61 60 64 66 71 76 80 82 78 76 79 77 74 65 46 49 46 37 50 48 51 50 50 48 42 44 44 45 48 48 42 37 37 38 41 38 38 29 24
75 67 52 50 55 57 59 65 68 72 79 84 86 86 86 83 81 81 79 69 59 58 55 52 52 57 61 57 50 50 46 44 43 48 48 50 42 36 44 41 39 34 37 27 12
43 46 42 35 41 47 47 50 51 67 70 71 85 89 89 94 91 89 85 82 72 68 67 62 59 61 59 50 54 52 44 43 46 47 48 43 50 42 47 49 46 37 30 28 29
22 23 25 25 29 38 37 38 43 44 58 66 71 69 75 91 91 92 92 87 82 76 74 71 67 57 56 56 50 59 48 44 44 41 43 42 46 50 43 40 40 45 41 28 31
17 18 20 19 26 32 36 42 47 59 54 49 53 64 60 72 91 94 93 91 88 81 74 72 67 57 61 55 50 49 64 52 41 39 38 45 40 41 54 50 33 30 42 44 42
Wind_Direction
346 350 349 347 342 351 358 352 327 311 309 296 262 256 259 252 248 258 236 227 202 212 201 186 174 178 170 179 215 147 11 117 127 186 304 317 321 324 325 331 333 219 171 210 192
342 345 345 341 342 339 338 350 359 346 317 301 302 271 252 255 246 247 299 217 218 217 206 194 177 181 167 190 190 196 148 128 129 75 321 325 327 321 314 314 331 342 273 255 234
334 339 340 341 338 337 335 332 334 334 349 334 301 287 276 251 248 247 230 236 216 217 224 202 195 182 174 173 144 125 162 144 112 346 349 308 314 334 313 302 309 259 292 262 190
324 331 332 331 332 330 328 328 330 334 331 328 338 302 277 277 244 239 229 233 230 217 219 228 199 187 182 195 163 156 10 98 115 22 352 318 311 329 321 308 331 310 291 276 195
312 320 322 326 325 327 325 321 322 323 328 335 330 341 298 268 256 237 231 226 229 226 217 222 216 192 185 197 190 145 34 20 48 21 356 284 296 296 328 324 337 309 299 267 244
306 312 315 315 315 313 316 319 320 316 317 327 332 334 353 311 250 253 235 225 223 228 217 219 219 212 199 199 209 128 228 300 24 357 293 301 296 273 321 316 325 313 307 266 215
294 298 303 307 310 313 316 318 320 316 313 314 311 310 310 310 320 261 249 227 229 225 225 217 212 219 217 210 207 166 207 238 226 233 266 275 278 289 296 321 315 304 297 263 205
286 290 295 297 298 299 302 304 308 309 308 309 309 310 289 294 286 280 259 235 221 230 226 221 218 223 226 226 228 187 179 187 204 243 223 271 258 257 264 324 309 309 293 222 183
285 288 291 293 298 301 303 301 301 303 303 300 304 303 300 300 281 273 272 252 228 220 230 228 226 228 227 230 241 228 201 178 181 229 238 242 310 324 295 307 314 293 274 178 175
284 281 279 281 282 288 289 287 289 290 293 296 300 297 293 299 286 267 267 275 239 229 225 233 231 231 233 231 230 237 221 176 167 224 259 280 287 305 306 288 285 265 222 176 158
284 285 283 278 276 276 280 280 278 278 281 281 288 293 291 291 280 275 260 253 250 240 235 234 238 237 246 244 229 229 227 173 173 240 251 258 263 284 318 308 268 235 214 201 188
278 278 278 279 278 277 272 272 272 270 265 274 280 268 280 278 281 274 271 255 248 238 232 236 247 237 237 236 224 225 233 195 181 251 270 273 296 257 304 262 271 222 192 229 214
276 275 274 275 274 274 271 271 271 267 262 259 273 269 266 271 279 267 271 262 249 245 251 244 239 232 232 234 230 219 222 196 197 217 220 253 247 273 290 276 246 244 227 236 242
276 276 272 269 271 269 268 272 267 266 263 261 260 267 265 268 270 274 261 264 259 252 246 243 223 225 227 231 233 223 213 221 197 232 270 232 245 247 263 295 290 284 294 256 256
273 271 270 270 270 269 267 267 266 267 268 268 261 257 259 266 257 262 261 259 260 253 248 243 235 232 233 229 229 218 206 214 208 218 252 226 219 233 258 258 265 269 269 257 251
278 274 270 269 266 267 270 267 265 261 261 265 263 260 260 265 264 259 260 256 249 251 254 242 236 234 228 232 224 216 210 211 212 209 240 252 242 242 247 265 257 259 274 264 235
277 277 273 268 269 266 266 266 264 262 266 264 266 264 261 259 260 262 253 252 255 255 259 252 249 236 224 227 222 209 212 209 213 212 223 229 252 236 227 237 258 268 261 258 258
275 274 271 269 266 267 265 265 263 267 264 254 260 259 257 258 256 260 259 251 243 247 244 242 240 241 240 226 236 222 218 219 215 219 226 221 232 238 235 252 273 283 260 266 261
274 272 269 266 263 262 260 261 265 263 259 256 251 254 254 255 253 250 253 253 242 243 246 248 244 235 237 236 227 234 232 229 226 224 227 228 229 241 254 257 263 273 284 251 261
272 273 278 271 267 264 261 260 260 256 254 250 252 245 245 242 241 249 244 249 246 236 238 239 241 233 236 229 230 226 237 225 226 229 229 229 223 220 237 254 258 262 264 285 272
285 282 279 272 269 266 264 262 258 252 244 243 242 239 239 235 235 234 242 235 241 246 236 236 240 233 228 229 229 227 223 227 230 231 233 232 230 208 219 249 254 261 275 282 283
291 289 281 272 268 267 264 257 252 248 240 236 238 238 232 234 230 231 233 235 232 247 246 233 233 233 236 229 232 232 234 230 233 231 230 233 242 203 208 239 265 278 264 267 270
290 287 275 270 270 262 257 249 244 240 237 232 231 229 230 229 229 230 226 222 202 204 245 249 238 231 226 229 229 231 228 232 234 242 241 230 245 221 202 230 236 229 228 247 222
283 277 264 257 255 247 243 242 233 230 230 230 226 228 225 223 222 223 225 211 198 202 207 221 247 236 230 231 219 225 229 229 232 232 237 242 239 224 203 219 252 258 253 247 231
279 274 266 246 245 244 240 246 241 235 232 234 228 227 225 222 218 220 214 215 205 198 203 207 215 236 234 226 216 223 222 236 232 237 234 239 237 238 205 222 237 252 250 264 204
304 280 261 251 237 241 245 249 243 239 238 237 237 231 231 224 221 214 214 213 204 201 202 207 213 218 236 236 221 217 210 222 243 239 242 239 237 225 221 220 241 248 248 208 206
296 282 268 253 244 240 238 239 241 245 239 240 241 239 227 222 223 217 213 209 204 198 203 204 209 210 225 227 225 215 219 210 220 241 245 239 237 234 223 212 219 234 237 248 210